Location: Newark
(27.9675°N, 86.8869°E)
Time: 11:30:31
(UTC+00:00)

SR - Pass Details

Date: 21 October 2019
Orbit: 574 x 882 km, 66.7° (Epoch: 11 November)

Event Time Altitude Azimuth Distance (km) Brightness Sun altitude
Rises 15:44:48 0° 218° (SW) 2,943 - -54.5°
Reaches altitude 10° 15:47:05 10° 225° (SW) 2,080 - -55.0°
Maximum altitude 15:51:36 45° 298° (WNW) 959 - -55.9°
Drops below altitude 10° 15:56:35 10° 11° (N) 2,286 - -56.9°
Sets 15:59:12 0° 17° (NNE) 3,267 - -57.4°
